Regional Weather Roundup
Issued by NWS

Home | Current Version | Previous Version | Graphics & Text | Print | Product List | Glossary On
Versions: 1 2 3 4 5 6 7 8 9 10 11 12 13 14 15 16 17 18 19 20 21 22 23 24 25 26 27 28 29 30 31 32 33 34 35 36 37 38 39 40 41 42 43 44 45 46 47 48 49 50
000
ASUS45 KSLC 031310
RWRUT

UTAH REGIONAL WEATHER ROUNDUP
NATIONAL WEATHER SERVICE SALT LAKE CITY UT
700 AM MDT WED JUN 03 2015

UTZ001>011-023>025-031400-

NORTHERN UTAH

CITY           SKY/WX    TMP DP  RH WIND       PRES   REMARKS
BRIGHAM CITY   PTCLDY    55  46  72 CALM      29.93S
HILL AFB       PTCLDY    55  40  58 E17       29.93R
LOGAN          SUNNY     51  47  86 CALM      29.98R
OGDEN          PTCLDY    54  45  71 SW5       29.92R
PROVO AIRPORT  CLEAR     57  37  47 CALM      29.93S
SALT LAKE CITY MOCLDY    60  51  72 E3        29.91R
VERNAL         SUNNY     57  37  47 W5        29.98R
WENDOVER       MOCLDY    61  39  44 NW7       29.93S
HEBER CITY     CLEAR     43  37  81 CALM      30.01S
WEST JORDAN    CLEAR     55  46  71 W5        29.94R

$$

UTZ012>022-026-027-031400-

SOUTHERN/CENTRAL UTAH

CITY           SKY/WX    TMP DP  RH WIND       PRES   REMARKS
BLANDING       SUNNY     53  25  34 NE8       30.12R
BRYCE CANYON   PTCLDY    36  24  62 W6        30.12R WCI  31
CEDAR CITY     PTCLDY    50  27  40 SE3       29.98R
DELTA          PTCLDY    57  20  23 S8        29.93R
HANKSVILLE     CLEAR     54  23  30 CALM      29.93R
MILFORD        PTCLDY    45  29  53 S6        29.94R
MOAB/CYNLANDS  SUNNY     61  22  22 CALM      29.90R
PRICE          MOSUNNY   55  28  35 NW3       29.97R
ST GEORGE      SUNNY     63  19  19 SE6       29.87R
KANAB          CLEAR     43  30  61 NE5       30.03R

$$

REGIONAL REPORTS     COLORADO/ARIZONA

CITY           SKY/WX    TMP DP  RH WIND       PRES   REMARKS
CRAIG, CO      SUNNY     42  39  89 CALM      30.06S
GRAND JUNCTION SUNNY     57  31  37 E6        29.94R
RIFLE          SUNNY     50  36  58 S3        30.02R
MONTROSE       SUNNY     58  29  33 SE13      30.04R
CORTEZ         SUNNY     47  32  56 CALM      30.09R
PAGE, AZ       CLEAR     67  17  14 SW5       29.94R
GRAND CANYON   PTCLDY    34  21  59 CALM      30.10S
KINGMAN        CLEAR     53  13  20 VRB3      29.88R
FLAGSTAFF      PTCLDY    36  23  59 CALM      30.13R

$$

REGIONAL REPORTS    NEVADA/IDAHO/WYOMING

CITY           SKY/WX    TMP DP  RH WIND       PRES   REMARKS
LAS VEGAS, NV  CLEAR     73  40  30 S20G28    29.74R
ELY            CLEAR     39  37  92 S14       30.02R WCI  31
ELKO           MOCLDY    44  37  76 CALM      29.97S
POCATELLO, ID  SUNNY     51  46  83 SW8       30.01R
BURLEY         CLEAR     51  43  74 NW3       29.99S
EVANSTON, WY   PTSUNNY   47  37  68 N8        30.07F
ROCK SPRINGS   MOSUNNY   54  36  50 VRB5      30.08R
KEMMERER       PTSUNNY   43  36  75 N10       30.10S

$$


USA.gov is the U.S. government's official web portal to all federal, state and local government web resources and services.